This demonstration page uses our WeatherBlox Daily Observations layout. Learn more.

Left ArrowRight Arrow

34.74481, -87.66753

Hourly Observations for May 20, 2021

Temp ( °F °C ) Dew Point ( °F °C ) Humidity (%) Winds ( mph kmh ) Pressure ( in mb ) Visibility ( mi km ) Precip ( " mm )
12:53 am 00:53 Clear 70 21.1 58 14.4 66 66 E 7 11 30.18 1022 10 16 0.00 0.00
1:53 am 01:53 Clear 69 20.6 58 14.4 68 68 E 7 11 30.18 1022 10 16 0.00 0.00
2:53 am 02:53 Clear 68 20 58 14.4 70 70 ESE 7 11 30.19 1022 10 16 0.00 0.00
3:53 am 03:53 Clear 67 19.4 58 14.4 73 73 ESE 7 11 30.19 1022 10 16 0.00 0.00
4:53 am 04:53 Clear 67 19.4 58 14.4 73 73 ESE 6 9 30.20 1023 10 16 0.00 0.00
5:53 am 05:53 Sunny 68 20 58 14.4 70 70 ESE 9 15 30.21 1023 10 16 0.00 0.00
6:53 am 06:53 Sunny 70 21.1 59 15 68 68 ESE 7 11 30.23 1024 10 16 0.00 0.00
7:53 am 07:53 Sunny 73 22.8 59 15 62 62 SE 12 19 30.25 1025 10 16 0.00 0.00
8:53 am 08:53 Sunny 75 23.9 59 15 58 58 ESE 15 24 30.26 1025 10 16 0.00 0.00
9:53 am 09:53 Sunny 77 25 57 13.9 50 50 ESE 16 26 30.26 1025 10 16 0.00 0.00
10:53 am 10:53 Sunny 80 26.7 57 13.9 45 45 SE 14 22 30.25 1025 10 16 0.00 0.00
11:53 am 11:53 Mostly Sunny 81 27.2 57 13.9 44 44 SE 17 28 30.25 1024 10 16 0.00 0.00
12:53 pm 12:53 Partly Cloudy 82 27.8 57 13.9 42 42 SE 15 24 30.24 1024 10 16 0.00 0.00
1:53 pm 13:53 Cloudy 83 28.3 58 14.4 43 43 SE 17 28 30.22 1024 10 16 0.00 0.00
2:53 pm 14:53 Mostly Sunny 84 28.9 55 12.8 37 37 SSE 12 19 30.21 1023 10 16 0.00 0.00
3:53 pm 15:53 Mostly Sunny 84 28.9 56 13.3 38 38 SE 9 15 30.19 1023 10 16 0.00 0.00
4:53 pm 16:53 Mostly Sunny 85 29.4 55 12.8 36 36 SE 13 20 30.19 1022 10 16 0.00 0.00
5:53 pm 17:53 Sunny 83 28.3 55 12.8 38 38 SE 13 20 30.18 1022 10 16 0.00 0.00
6:53 pm 18:53 Sunny 80 26.7 55 12.8 42 42 ESE 7 11 30.19 1022 10 16 0.00 0.00
7:53 pm 19:53 Clear 75 23.9 55 12.8 50 50 ESE 6 9 30.20 1023 10 16 0.00 0.00
8:53 pm 20:53 Clear 73 22.8 54 12.2 51 51 ESE 7 11 30.22 1023 10 16 0.00 0.00
9:53 pm 21:53 Clear 69 20.6 55 12.8 61 61 ESE 6 9 30.24 1024 10 16 0.00 0.00
10:53 pm 22:53 Clear 68 20 55 12.8 63 63 ESE 6 9 30.26 1025 10 16 0.00 0.00
11:53 pm 23:53 Clear 67 19.4 55 12.8 66 66 E 6 9 30.26 1025 10 16 0.00 0.00

Powered by AerisWeather